Zurück zum Katalog

STARLINK-32535

AktivKommunikationVLEO
NORAD 62119·PAYLOAD·🇺🇸 United States

Gestartet Nov 27, 2024 von Cape Canaveral Space Force Station

Loading…

Nächste Überflüge (nächste 24 Stunden)

TLE

AktuellSource: CelesTrak SupGP

Epoche: Sep 15, 2026, 03:16 UTC

1 62119C 24222F   26258.13659722  .00055957  00000+0  20266-2 0  2585
2 62119  42.9999 143.0508 0001405 276.8839 307.4187 15.27552739    14

Verfolge STARLINK-32535 in Echtzeit mit AllMySat

Download on the App Store